Home > Weather > Elverum > Past weeks

Flag for Norway Past Weather in Elverum, Norway — Yesterday and Last 2 Weeks

Now
62 °F

Mild.


Feels Like: 62 °F
Forecast: 56 / 75 °F
Wind: 2 mph from North

Location: Haugedalshogda

Current Time: Jul 24, 2016 at 9:05:30 AM

Latest Report: Jul 24, 2016 at 8:00 AM


Visibility: N/A

Pressure: 30.15 "Hg

Humidity: 86%

Dew Point: 58 °F

Location of ElverumLocation

Past Weather in Elverum — Graph

°F

Elverum Temperature Yesterday

Maximum temperature yesterday: 75 °F (at 2:00 PM)
Minimum temperature yesterday: 48 °F (at 4:00 AM)
Average temperature yesterday: 64 °F

High & Low Weather Summary for the Past Weeks

 TemperatureHumidityPressure
High80 °F (Jul 21, 3:00 PM)100% (Jul 11, 8:00 AM)30.16 "Hg (Jul 11, 8:00 AM)
Low39 °F (Jul 10, 5:00 AM)28% (Jul 15, 6:00 PM)29.41 "Hg (Jul 11, 4:00 PM)
Average61 °F68%29.85 "Hg
* Reported Jul 9 8:00 AM — Jul 24 8:00 AM, Elverum, Weather by CustomWeather, © 2016

Note: Actual official high and low records may vary slightly from our data, if they occured in-between our weather recording intervals... More about our weather records

Advertising

Elverum Weather History for the Previous 24 Hours

Scroll right to see more
 ConditionsComfort  
Time TempWeatherWind HumidityBarometerVisibility
8:00 AM
Sun, Jul 24
62 °FMild.2 mph86%30.15 "HgN/A
7:00 AM60 °FCool.No windN/A30.15 "HgN/A
6:00 AM57 °FCool.1 mphN/A30.16 "HgN/A
5:00 AM54 °FCool.No windN/A30.15 "HgN/A
4:00 AM55 °FCool.1 mphN/A30.16 "HgN/A
3:00 AM57 °FCool.1 mphN/A30.15 "HgN/A
2:00 AM57 °FCool.1 mphN/A30.15 "HgN/A
1:00 AM58 °FCool.1 mph100%30.14 "HgN/A
12:00 AM59 °FCool.1 mph97%30.14 "HgN/A
11:00 PM
Sat, Jul 23
62 °FCool.1 mph97%30.14 "HgN/A
10:00 PM63 °FMild.1 mph86%30.13 "HgN/A
9:00 PM67 °FMild.1 mph77%30.12 "HgN/A
8:00 PM68 °FMild.2 mph74%30.11 "HgN/A
7:00 PM70 °FMild.2 mph67%30.12 "HgN/A
6:00 PM69 °FMild.2 mph68%30.12 "HgN/A
5:00 PM71 °FMild.2 mph63%30.12 "HgN/A
4:00 PM69 °FMild.2 mph70%30.13 "HgN/A
3:00 PM72 °FMild.6 mph54%30.12 "HgN/A
2:00 PM75 °FMild.5 mph56%30.11 "HgN/A
1:00 PM74 °FMild.3 mph56%30.11 "HgN/A
12:00 PM73 °FMild.3 mph60%30.11 "HgN/A
11:00 AM73 °FMild.1 mph58%30.12 "HgN/A
10:00 AM69 °FMild.2 mph67%30.13 "HgN/A
9:00 AM67 °FMild.No wind70%30.14 "HgN/A
Weather by CustomWeather, © 2016

See weather overviewHow to use our weather pages